#timestamp,LO_Frequency,Hit,StdDev 
1593219615.0,286047004.2,N
1593219615.9,286047004.2,N
1593219635.8,286047002.6,N
1593219655.6,286047001.9,N
1593219675.5,286047004.0,Y
1593219695.3,286046998.6,P
1593219715.2,286046998.6,N
1593219735.9,286046999.8,N
1593219755.8,286047002.7,N
1593219775.6,286047002.6,N
1593219795.5,286047001.3,N
1593219815.3,286047001.6,N
1593219835.2,286047001.5,N
1593219855.9,286046999.7,N
1593219875.7,286047004.4,N
1593219895.6,286047002.6,N
1593219915.4,286047000.8,N
1593219935.2,286047000.2,N
1593219955.1,286046999.9,N
1593219956.0,286046999.9,N
1593219975.8,286047001.2,N
1593219995.7,286047000.6,N
1593220015.5,286046999.8,N
1593220035.3,286047002.0,N
1593220055.2,286047002.5,N
1593220075.0,286047011.9,Y
1593220075.9,286047002.8,P
1593220095.8,286046998.2,N
1593220115.6,286047000.7,N
1593220135.4,286047000.6,N
1593220155.3,286046999.0,N
1593220175.1,286046998.2,N
1593220195.8,286046998.5,N
1593220215.7,286046999.8,N
1593220235.5,286047000.9,N
1593220255.4,286047000.6,N
1593220275.2,286047001.2,N
1593220295.0,286047000.2,N
1593220295.9,286047000.2,N
1593220315.8,286047000.4,N
1593220335.6,286046998.7,N
1593220355.5,286046999.4,N
1593220375.3,286046996.5,N
1593220395.1,286046999.5,N
1593220415.9,286046999.1,N
1593220435.7,286046996.9,N
1593220455.5,286046996.5,N
1593220475.4,286046997.8,N
1593220495.2,286046999.2,N
1593220515.1,286046996.8,N
1593220516.0,286046996.8,N
1593220535.8,286046996.7,N
1593220555.6,286046996.8,N
1593220575.5,286046997.1,N
1593220595.3,286046997.4,N
1593220615.2,286046996.5,N
1593220635.9,286046996.8,N
1593220655.7,286046997.3,N
1593220675.6,286046996.5,N
1593220695.4,286046997.1,N
1593220715.2,286046997.2,N
1593220735.1,286046996.9,N
1593220736.0,286046996.9,N
1593220755.8,286046999.6,N
1593220775.7,286046999.3,N
1593220795.5,286046997.1,N
1593220815.3,286046996.7,N
1593220835.2,286046996.5,N
1593220855.0,286046996.8,N
1593220855.9,286046996.8,N
1593220875.8,286046995.5,Y
1593220895.6,286046998.5,P
1593220915.4,286046999.3,N
1593220935.3,286047000.8,N
1593220955.1,286047000.9,N
1593220975.9,286047002.0,N
1593220995.7,286047001.2,N
1593221015.5,286046998.5,N
1593221035.4,286046998.2,N
1593221055.2,286046998.1,N
1593221075.1,286047001.1,N
1593221076.0,286047001.1,N
1593221095.8,286047001.0,N
1593221115.6,286046998.6,N
1593221135.5,286047000.5,N
1593221155.3,286047001.2,N
1593221175.1,286047001.1,N
1593221195.9,286047000.8,N
1593221215.7,286046998.9,N
1593221235.6,286046998.4,N
1593221255.4,286047000.6,N
1593221275.2,286046998.6,N
1593221295.1,286046999.0,N
1593221296.0,286046999.0,N
1593221315.8,286046996.9,N
1593221335.7,286046999.5,N
1593221355.5,286047001.2,N
1593221375.3,286047000.8,N
1593221395.2,286046998.3,N
1593221415.0,286046999.1,N
1593221415.9,286046999.1,N
1593221435.8,286046998.8,N
1593221455.6,286046999.5,N
1593221475.4,286046999.1,N
1593221495.3,286046999.6,N
1593221515.1,286046999.4,N
1593221535.8,286046999.4,N
1593221555.7,286046996.9,N
1593221575.5,286046999.2,N
1593221595.4,286046999.3,N
1593221615.2,286046998.6,N
1593221635.0,286046998.5,N
1593221635.9,286046998.5,N
1593221655.8,286047000.9,N
1593221675.6,286046996.5,Y
1593221695.5,286047000.7,P
1593221715.3,286046998.6,N
1593221735.1,286046998.8,N
1593221755.9,286046998.1,N
1593221775.7,286046998.2,N
1593221795.6,286047000.6,N
1593221815.4,286047001.1,N
1593221835.2,286046998.9,N
1593221855.1,286046998.3,N
1593221856.0,286046998.3,N
1593221875.8,286046998.6,N
1593221895.6,286047000.8,N
1593221915.5,286047000.7,N
1593221935.3,286046998.2,N
1593221955.2,286046998.8,N
1593221975.9,286046998.6,N
1593221995.7,286046999.5,N
1593222015.6,286046998.7,N
1593222035.4,286046996.5,Y
1593222055.3,286046998.3,P
1593222075.1,286046996.5,P
1593222076.0,286046996.5,P
1593222095.8,286046998.4,N
1593222115.7,286046998.1,N
1593222135.5,286047002.4,N
1593222155.3,286046999.9,N
1593222175.2,286046999.9,N
1593222195.0,286047002.3,N
1593222195.9,286047002.3,N
1593222215.8,286047000.5,N
1593222235.6,286047001.1,N
1593222255.4,286047002.4,N
1593222275.3,286047000.2,N
1593222295.1,286047002.8,N
1593222315.9,286046999.9,N
1593222335.7,286047002.4,N
1593222355.5,286047000.1,N
1593222375.4,286046999.8,N
1593222395.2,286046999.8,N
1593222415.0,286047001.8,N
1593222415.9,286047001.8,N
1593222435.8,286047002.5,N
1593222455.6,286046999.8,N
1593222475.5,286047002.6,N
1593222495.3,286047002.5,N
1593222515.1,286047002.2,N
1593222535.9,286047002.0,N
1593222555.7,286047001.9,N
1593222575.6,286047002.3,N
1593222595.4,286047002.2,N
1593222615.2,286046999.8,N
1593222635.1,286047002.3,N
1593222636.0,286047002.3,N
1593222655.8,286047002.6,N
1593222675.7,286047002.7,N
1593222695.5,286047001.9,N
1593222715.3,286047002.6,N
1593222735.2,286047002.7,N
1593222755.0,286047002.3,N
1593222755.9,286047002.3,N
1593222775.7,286047001.9,N
1593222795.6,286047002.3,N
1593222815.4,286047002.8,N
1593222835.3,286047000.2,N
1593222855.1,286046999.9,N
1593222875.8,286047001.3,N
1593222895.7,286047002.3,N
1593222915.5,286047002.2,N
1593222935.4,286047002.6,N
1593222955.6,286047001.4,N
1593222975.4,286047003.9,Y
1593222995.2,286047002.3,P
1593223015.1,286047003.5,P
1593223016.0,286047003.5,P
1593223035.8,286047000.3,N
1593223055.7,286047001.2,N
1593223075.5,286047000.5,N
1593223095.3,286047000.7,N
1593223115.2,286047000.3,N
1593223135.0,286046998.6,N
1593223135.9,286046998.6,N
1593223155.8,286047000.2,N
1593223175.6,286047004.3,N
1593223195.4,286047001.3,N
